Weather History for New Haven, CT

Change the Weather History Date:

Thursday, November 29, 2012

  Actual Average Record
Temperature  
Mean Temperature 40 °F -  
Max Temperature 46 °F 46 °F 87 °F (1996)
Min Temperature 34 °F 32 °F 21 °F (2014)
Degree Days  
Heating Degree Days 25    
Moisture  
Dew Point 25 °F    
Average Humidity 56    
Maximum Humidity 70    
Minimum Humidity 44    
Precipitation  
Precipitation 0.00 in - - ()
Sea Level Pressure  
Sea Level Pressure 30.28 in    
Wind  
Wind Speed 6 mph (West)    
Max Wind Speed 15 mph    
Max Gust Speed 22 mph    
Visibility 10 miles    
Events      
Averages and records for this station are not official NWS values.
T = Trace of Precipitation, MM = Missing Value Source: NWS Daily Summary

Daily Weather History Graph

Daily Weather History Graph

Search for Another Location

Airport:

Trip Planner

Search our weather history database for the weather conditions in past years. The results will help you decide how hot, cold, wet, or windy it might be!

Date:

Astronomy

Nov. 29, 2012 Rise Set
Actual Time 6:56 AM EST 4:23 PM EST
Civil Twilight 6:25 AM EST 4:54 PM EST
Nautical Twilight 5:51 AM EST 5:28 PM EST
Astronomical Twilight 5:18 AM EST 6:01 PM EST
Moon 5:24 PM EST (11/29) 7:40 AM EST (11/29)
Length of Visible Light 10h 28m
Length of Day
9h 27m
Full, 99% of the Moon is Illuminated
Nov 29
Full
Dec 6
Last Quarter
Dec 13
New
Dec 20
First Quarter
Dec 28
Full

Hourly Weather History & Observations

Time (EST) Temp. Windchill Dew Point Humidity Pressure Visibility Wind Dir Wind Speed Gust Speed Precip Events Conditions
12:53 AM 35.1 °F - 23.0 °F 61% 30.24 in 10.0 mi Calm Calm - N/A   Clear
1:53 AM 34.0 °F 29.8 °F 24.1 °F 67% 30.25 in 10.0 mi WNW 4.6 mph - N/A   Clear
2:53 AM 34.0 °F - 23.0 °F 64% 30.26 in 10.0 mi Calm Calm - N/A   Clear
3:53 AM 35.1 °F 32.2 °F 24.1 °F 64% 30.25 in 10.0 mi WNW 3.5 mph - N/A   Clear
4:53 AM 35.1 °F 31.0 °F 23.0 °F 61% 30.27 in 10.0 mi West 4.6 mph - N/A   Clear
5:53 AM 35.1 °F 32.2 °F 24.1 °F 64% 30.27 in 10.0 mi West 3.5 mph - N/A   Clear
6:53 AM 34.0 °F 28.8 °F 25.0 °F 70% 30.29 in 10.0 mi West 5.8 mph - N/A   Partly Cloudy
7:53 AM 35.1 °F 30.1 °F 25.0 °F 67% 30.31 in 10.0 mi West 5.8 mph - N/A   Scattered Clouds
8:53 AM 37.0 °F 32.4 °F 26.1 °F 65% 30.33 in 10.0 mi West 5.8 mph - N/A   Scattered Clouds
9:53 AM 39.9 °F 33.9 °F 25.0 °F 55% 30.32 in 10.0 mi West 9.2 mph - N/A   Clear
10:53 AM 41.0 °F 36.4 °F 24.1 °F 51% 30.32 in 10.0 mi West 6.9 mph - N/A   Mostly Cloudy
11:53 AM 43.0 °F 38.2 °F 24.1 °F 47% 30.29 in 10.0 mi West 8.1 mph - N/A   Mostly Cloudy
12:53 PM 45.0 °F 41.2 °F 24.1 °F 44% 30.27 in 10.0 mi WSW 6.9 mph - N/A   Partly Cloudy
1:53 PM 46.0 °F 41.9 °F 27.0 °F 47% 30.25 in 10.0 mi SW 8.1 mph - N/A   Clear
2:53 PM 45.0 °F 39.7 °F 25.0 °F 46% 30.24 in 10.0 mi WSW 10.4 mph 16.1 mph N/A   Clear
3:53 PM 45.0 °F 39.7 °F 26.1 °F 48% 30.24 in 10.0 mi WSW 10.4 mph 17.3 mph N/A   Clear
4:53 PM 44.1 °F 38.6 °F 27.0 °F 51% 30.25 in 10.0 mi WSW 10.4 mph 18.4 mph N/A   Clear
5:53 PM 44.1 °F 37.7 °F 25.0 °F 47% 30.26 in 10.0 mi WSW 12.7 mph 17.3 mph N/A   Clear
6:53 PM 44.1 °F 38.6 °F 27.0 °F 51% 30.27 in 10.0 mi WSW 10.4 mph 18.4 mph N/A   Clear
7:53 PM 43.0 °F 35.7 °F 27.0 °F 53% 30.28 in 10.0 mi WSW 15.0 mph 21.9 mph N/A   Clear
8:53 PM 43.0 °F 36.4 °F 27.0 °F 53% 30.29 in 10.0 mi WSW 12.7 mph 20.7 mph N/A   Clear
9:53 PM 43.0 °F 36.8 °F 27.0 °F 53% 30.29 in 10.0 mi WSW 11.5 mph 20.7 mph N/A   Clear
10:53 PM 42.1 °F 36.1 °F 26.1 °F 53% 30.29 in 10.0 mi WSW 10.4 mph 19.6 mph N/A   Clear
11:53 PM 42.1 °F 38.4 °F 26.1 °F 53% 30.30 in 10.0 mi West 5.8 mph - N/A   Clear